Location: Unspecified
(0.0000°N, 0.0000°E)
Time: 07:29:00
(UTC+00:00)

S-56A Canister/Altair - Pass Details

Date: 31 May 2024
Orbit: 637 x 2489 km, 38.9° (Epoch: 22 June)

Event Time Altitude Azimuth Distance (km) Brightness Sun altitude
Rises 23:10:13 0° 222° (SW) 4,785 - -65.0°
Reaches altitude 10° 23:13:02 10° 219° (SW) 4,018 - -65.4°
Maximum altitude 23:24:20 70° 136° (SE) 2,304 - -66.4°
Exits shadow 23:38:23 12° 56° (NE) 4,952 11.6 -67.4°
Drops below altitude 10° 23:39:08 10° 56° (NE) 5,136 11.7 -67.4°
Sets 23:43:13 0° 54° (NE) 6,148 12.3 -67.6°
